TimeCST,TemperatureF,Dew PointF,Humidity,Sea Level PressureIn,VisibilityMPH,Wind Direction,Wind SpeedMPH,Gust SpeedMPH,PrecipitationIn,Events,Conditions,WindDirDegrees,DateUTC
12:54 AM,30.9,26.1,82,30.34,10.0,Calm,Calm,-,N/A,,Clear,0,2013-11-08 06:54:00
1:54 AM,30.9,26.1,82,30.34,10.0,Calm,Calm,-,N/A,,Clear,0,2013-11-08 07:54:00
2:54 AM,28.0,24.1,85,30.35,10.0,SW,3.5,-,N/A,,Clear,220,2013-11-08 08:54:00
3:54 AM,26.1,23.0,88,30.34,10.0,SSW,5.8,-,N/A,,Clear,210,2013-11-08 09:54:00
4:54 AM,30.9,26.1,82,30.33,10.0,Calm,Calm,-,N/A,,Clear,0,2013-11-08 10:54:00
5:54 AM,30.0,25.0,82,30.33,9.0,SSE,4.6,-,N/A,,Clear,150,2013-11-08 11:54:00
6:54 AM,27.0,24.1,89,30.34,10.0,South,4.6,-,N/A,,Clear,180,2013-11-08 12:54:00
7:54 AM,33.1,28.0,82,30.35,10.0,South,5.8,-,N/A,,Clear,190,2013-11-08 13:54:00
8:54 AM,39.0,28.9,67,30.33,10.0,South,10.4,-,N/A,,Clear,170,2013-11-08 14:54:00
9:54 AM,43.0,30.0,60,30.30,10.0,SSE,9.2,-,N/A,,Clear,150,2013-11-08 15:54:00
10:54 AM,46.0,30.0,54,30.27,10.0,SSE,13.8,-,N/A,,Clear,150,2013-11-08 16:54:00
11:54 AM,46.9,27.0,46,30.23,10.0,SSE,16.1,-,N/A,,Clear,160,2013-11-08 17:54:00
12:54 PM,50.0,28.0,43,30.18,10.0,South,13.8,-,N/A,,Clear,170,2013-11-08 18:54:00
1:54 PM,53.1,28.9,40,30.13,10.0,SSE,15.0,23.0,N/A,,Clear,160,2013-11-08 19:54:00
2:54 PM,54.0,28.0,37,30.09,10.0,SSE,12.7,25.3,N/A,,Clear,160,2013-11-08 20:54:00
3:54 PM,53.1,28.0,38,30.06,10.0,SSE,12.7,-,N/A,,Clear,150,2013-11-08 21:54:00
4:54 PM,51.1,28.9,43,30.01,10.0,SSE,12.7,-,N/A,,Clear,150,2013-11-08 22:54:00
5:54 PM,51.1,28.9,43,30.00,10.0,SSE,15.0,23.0,N/A,,Clear,160,2013-11-08 23:54:00
6:54 PM,52.0,28.9,41,30.00,10.0,South,13.8,24.2,N/A,,Clear,170,2013-11-09 00:54:00
7:54 PM,51.1,28.9,43,30.00,10.0,South,16.1,24.2,N/A,,Clear,180,2013-11-09 01:54:00
8:54 PM,50.0,30.0,46,29.99,10.0,South,15.0,-,N/A,,Clear,180,2013-11-09 02:54:00
9:54 PM,50.0,30.9,48,29.99,10.0,South,18.4,25.3,N/A,,Clear,190,2013-11-09 03:54:00
10:54 PM,50.0,33.1,52,29.98,10.0,South,16.1,25.3,N/A,,Clear,190,2013-11-09 04:54:00
11:54 PM,48.9,34.0,56,29.98,10.0,SSW,16.1,-,N/A,,Clear,200,2013-11-09 05:54:00